TimeCST,TemperatureF,Dew PointF,Humidity,Sea Level PressureIn,VisibilityMPH,Wind Direction,Wind SpeedMPH,Gust SpeedMPH,PrecipitationIn,Events,Conditions,WindDirDegrees,DateUTC
12:53 AM,57.9,41.0,53,30.01,10.0,SE,15.0,27.6,N/A,,Mostly Cloudy,130,2012-02-03 06:53:00
1:48 AM,57.2,41.0,55,30.01,10.0,SE,16.1,28.8,N/A,,Mostly Cloudy,140,2012-02-03 07:48:00
1:53 AM,57.0,41.0,55,29.99,10.0,SE,17.3,24.2,N/A,,Overcast,130,2012-02-03 07:53:00
2:07 AM,57.2,41.0,55,30.00,10.0,SE,17.3,26.5,N/A,,Scattered Clouds,130,2012-02-03 08:07:00
2:16 AM,57.2,41.0,55,30.00,10.0,SE,21.9,27.6,N/A,,Mostly Cloudy,130,2012-02-03 08:16:00
2:39 AM,57.2,41.0,55,29.99,10.0,SE,18.4,29.9,N/A,,Scattered Clouds,130,2012-02-03 08:39:00
2:51 AM,57.2,41.0,55,29.99,10.0,SE,19.6,24.2,N/A,,Mostly Cloudy,130,2012-02-03 08:51:00
2:53 AM,57.0,41.0,55,29.98,10.0,SE,16.1,24.2,N/A,,Mostly Cloudy,130,2012-02-03 08:53:00
3:53 AM,57.9,41.0,53,29.97,10.0,SE,18.4,26.5,N/A,,Mostly Cloudy,140,2012-02-03 09:53:00
4:53 AM,57.9,42.1,56,29.96,10.0,SE,17.3,23.0,N/A,,Overcast,140,2012-02-03 10:53:00
5:53 AM,57.9,44.1,60,29.96,10.0,SE,18.4,27.6,N/A,,Overcast,140,2012-02-03 11:53:00
6:53 AM,57.0,46.9,69,29.96,10.0,SE,17.3,25.3,N/A,,Overcast,140,2012-02-03 12:53:00
7:53 AM,57.0,48.0,72,29.98,10.0,SSE,15.0,21.9,N/A,,Overcast,160,2012-02-03 13:53:00
8:53 AM,57.0,48.9,74,29.99,10.0,Variable,3.5,-,N/A,,Overcast,0,2012-02-03 14:53:00
9:53 AM,57.0,50.0,77,29.99,10.0,SE,10.4,-,0.00,Rain,Light Rain,130,2012-02-03 15:53:00
10:23 AM,55.4,51.8,88,29.99,10.0,SE,10.4,-,0.00,Rain,Light Rain,140,2012-02-03 16:23:00
10:53 AM,55.9,52.0,87,29.97,10.0,ESE,6.9,-,0.00,,Overcast,120,2012-02-03 16:53:00
11:00 AM,55.4,51.8,88,29.98,10.0,ESE,10.4,-,N/A,Thunderstorm,Thunderstorm,120,2012-02-03 17:00:00
11:09 AM,55.4,51.8,88,29.98,3.0,SE,10.4,-,0.00,Rain-Thunderstorm,Light Thunderstorms and Rain,140,2012-02-03 17:09:00
11:13 AM,55.4,53.6,94,29.98,2.0,SSE,6.9,-,0.05,Rain-Thunderstorm,Thunderstorms and Rain,150,2012-02-03 17:13:00
11:17 AM,55.4,53.6,94,29.98,4.0,SSE,5.8,-,0.07,Rain-Thunderstorm,Light Thunderstorms and Rain,150,2012-02-03 17:17:00
11:32 AM,55.4,53.6,94,29.97,7.0,SSE,6.9,-,0.07,,Overcast,150,2012-02-03 17:32:00
11:53 AM,57.0,54.0,89,29.95,10.0,SSE,9.2,-,0.07,,Overcast,150,2012-02-03 17:53:00
12:53 PM,57.0,54.0,89,29.90,10.0,SE,10.4,18.4,N/A,,Overcast,140,2012-02-03 18:53:00
1:53 PM,59.0,55.0,87,29.86,10.0,South,15.0,23.0,0.00,Rain,Light Rain,170,2012-02-03 19:53:00
2:01 PM,59.0,55.4,88,29.88,10.0,South,11.5,24.2,0.00,,Overcast,170,2012-02-03 20:01:00
2:11 PM,55.4,51.8,88,29.89,10.0,North,20.7,27.6,0.00,Rain,Light Rain,350,2012-02-03 20:11:00
2:17 PM,51.8,48.2,88,29.90,10.0,NNW,21.9,29.9,0.00,Rain,Light Rain,330,2012-02-03 20:17:00
2:27 PM,51.8,48.2,88,29.90,1.5,NNW,24.2,31.1,0.00,Rain,Heavy Rain,340,2012-02-03 20:27:00
2:51 PM,51.8,50.0,94,29.91,2.0,North,15.0,21.9,0.22,Rain-Thunderstorm,Heavy Thunderstorms and Rain,350,2012-02-03 20:51:00
2:53 PM,51.1,50.0,96,29.91,2.0,North,12.7,21.9,0.24,Rain-Thunderstorm,Heavy Thunderstorms and Rain,360,2012-02-03 20:53:00
3:03 PM,51.8,50.0,94,29.90,1.8,North,16.1,23.0,0.06,Rain-Thunderstorm,Heavy Thunderstorms and Rain,10,2012-02-03 21:03:00
3:12 PM,51.8,50.0,94,29.91,1.5,NE,13.8,20.7,0.13,Rain,Heavy Rain,40,2012-02-03 21:12:00
3:15 PM,51.8,50.0,94,29.91,2.0,NNE,11.5,20.7,0.14,Rain,Rain,30,2012-02-03 21:15:00
3:17 PM,51.8,50.0,94,29.92,4.0,North,9.2,20.7,0.14,Rain,Light Rain,10,2012-02-03 21:17:00
3:26 PM,51.8,51.8,100,29.91,1.5,NE,11.5,18.4,0.17,Rain-Thunderstorm,Heavy Thunderstorms and Rain,40,2012-02-03 21:26:00
3:53 PM,52.0,51.1,97,29.90,1.5,NE,12.7,21.9,0.35,Rain-Thunderstorm,Heavy Thunderstorms and Rain,40,2012-02-03 21:53:00
4:02 PM,51.8,51.8,100,29.90,2.0,NE,15.0,-,0.00,Rain,Light Rain,40,2012-02-03 22:02:00
4:09 PM,51.8,51.8,100,29.90,2.0,NE,16.1,-,0.02,Rain,Light Rain,40,2012-02-03 22:09:00
4:15 PM,51.8,51.8,100,29.90,2.0,NE,16.1,-,0.03,Rain-Thunderstorm,Light Thunderstorms and Rain,40,2012-02-03 22:15:00
4:21 PM,51.8,51.8,100,29.90,1.5,NE,18.4,-,0.04,Rain-Thunderstorm,Heavy Thunderstorms and Rain,40,2012-02-03 22:21:00
4:39 PM,51.8,51.8,100,29.93,1.5,North,12.7,-,0.13,Rain,Rain,360,2012-02-03 22:39:00
4:46 PM,51.8,51.8,100,29.94,2.0,NNW,10.4,-,0.15,Rain,Light Rain,330,2012-02-03 22:46:00
4:50 PM,51.8,51.8,100,29.94,1.5,North,8.1,-,0.15,Rain,Rain,350,2012-02-03 22:50:00
4:53 PM,51.1,51.1,100,29.93,1.5,NNW,5.8,-,0.16,Rain,Rain,340,2012-02-03 22:53:00
5:06 PM,51.8,51.8,100,29.92,2.0,NE,10.4,-,0.02,Rain,Light Rain,40,2012-02-03 23:06:00
5:12 PM,51.8,50.0,94,29.91,2.0,ENE,9.2,-,0.02,Rain,Light Rain,60,2012-02-03 23:12:00
5:17 PM,51.8,50.0,94,29.90,5.0,ENE,12.7,-,0.02,Rain,Light Rain,60,2012-02-03 23:17:00
5:19 PM,51.8,50.0,94,29.90,7.0,ENE,11.5,-,0.02,,Overcast,60,2012-02-03 23:19:00
5:53 PM,52.0,51.1,97,29.89,10.0,East,11.5,-,0.02,,Mostly Cloudy,80,2012-02-03 23:53:00
6:10 PM,51.8,51.8,100,29.89,10.0,East,11.5,23.0,0.00,Rain,Light Rain,90,2012-02-04 00:10:00
6:50 PM,51.8,51.8,100,29.89,10.0,East,9.2,-,0.00,,Mostly Cloudy,90,2012-02-04 00:50:00
6:53 PM,52.0,50.0,93,29.89,10.0,East,11.5,16.1,0.00,,Mostly Cloudy,90,2012-02-04 00:53:00
7:35 PM,51.8,50.0,94,29.89,10.0,East,4.6,-,N/A,,Overcast,100,2012-02-04 01:35:00
7:53 PM,51.1,50.0,96,29.88,8.0,Calm,Calm,-,N/A,,Overcast,0,2012-02-04 01:53:00
8:53 PM,51.1,50.0,96,29.90,10.0,Calm,Calm,-,N/A,,Overcast,0,2012-02-04 02:53:00
9:53 PM,51.1,50.0,96,29.92,6.0,WNW,5.8,-,N/A,,Overcast,300,2012-02-04 03:53:00
10:19 PM,51.8,50.0,94,29.94,1.5,WNW,6.9,-,N/A,,Light Drizzle,290,2012-02-04 04:19:00
10:29 PM,51.8,50.0,94,29.94,1.5,WNW,9.2,-,0.00,,Light Drizzle,290,2012-02-04 04:29:00
10:53 PM,51.1,50.0,96,29.95,1.5,WNW,9.2,-,0.00,,Light Drizzle,300,2012-02-04 04:53:00
11:07 PM,51.8,50.0,94,29.96,3.0,WNW,8.1,-,0.00,,Light Drizzle,300,2012-02-04 05:07:00
11:22 PM,51.8,50.0,94,29.97,2.5,WNW,8.1,-,0.00,,Light Drizzle,300,2012-02-04 05:22:00
11:31 PM,51.8,50.0,94,29.98,3.0,WNW,9.2,-,0.00,,Light Drizzle,300,2012-02-04 05:31:00
11:53 PM,51.1,50.0,96,29.97,4.0,WNW,5.8,-,0.00,,Light Drizzle,300,2012-02-04 05:53:00